RH
73 79 81 80 82 86 84 87 92 86 87 91 87 82 80 80 75 73 75 72 70 70 69 68 68 69 69 68 67 65 66 65 61 55 54 56 57 58 59 58 55 51 51 52 53 53 52 51 50 49 48 48 48 49 49 50 50 50 50 47 44 42 44 43 40 39 38 36 36 37 38 38 38 40 44 47 47 47 45 45 45 42 44 47 48 50 49 46 45 48 51 52 54 55 54 54 53
75 80 81 82 85 89 88 89 93 89 87 89 86 84 79 76 75 74 74 69 67 67 66 68 66 66 66 64 62 63 64 63 59 53 52 56 59 60 57 57 56 51 50 50 49 49 50 50 50 48 46 44 45 47 46 46 45 44 43 40 39 40 39 37 36 36 35 35 35 36 37 37 37 39 41 42 43 44 41 43 46 45 46 48 48 49 51 51 50 52 53 55 57 56 54 52 50
78 80 81 82 85 88 91 92 93 91 89 84 81 83 79 77 77 72 70 67 66 66 65 66 65 66 67 63 62 58 55 56 55 51 53 59 60 59 57 57 54 49 48 48 48 48 48 47 47 46 44 44 45 46 44 42 39 38 36 35 37 39 37 36 37 37 36 36 36 39 41 41 41 43 43 40 40 40 38 41 47 49 50 50 50 51 53 54 54 56 59 60 60 57 55 52 50
80 80 81 83 88 91 92 94 91 90 88 82 81 82 79 77 73 67 67 67 67 65 63 64 63 67 65 62 62 54 48 50 53 51 54 58 56 56 55 53 52 50 49 47 47 47 46 45 46 45 45 44 44 42 39 36 35 36 36 38 40 41 42 41 42 43 42 41 42 45 46 47 48 48 47 43 42 42 42 44 48 50 51 52 54 56 55 54 55 56 58 60 58 57 56 54 52
79 81 84 87 95 95 93 93 88 89 87 82 82 79 75 70 68 68 67 68 70 65 63 65 63 66 63 61 60 52 49 51 55 54 52 54 55 54 52 50 52 52 49 46 46 46 46 45 45 45 44 43 41 39 39 39 41 42 42 44 46 47 49 49 50 51 50 48 48 50 50 52 52 50 49 46 43 48 52 49 50 52 53 54 55 56 55 53 55 55 54 57 58 57 55 53 51
80 83 86 89 93 93 92 92 87 88 85 81 81 76 73 66 65 68 67 70 72 68 68 66 60 59 58 57 54 50 50 53 56 55 53 54 55 55 52 49 52 52 49 45 44 43 44 44 43 43 42 41 42 43 45 49 50 49 48 49 50 52 54 56 56 56 55 53 52 53 52 53 55 53 51 48 45 51 55 51 49 52 54 54 53 54 53 52 53 53 51 54 58 57 54 51 50
83 86 88 90 91 91 93 92 88 87 83 82 80 75 74 67 64 64 66 71 70 70 69 65 57 52 57 56 52 50 51 55 54 52 55 54 53 55 54 53 53 53 49 44 41 40 41 41 41 41 42 44 47 49 52 55 55 55 54 55 55 54 55 59 60 57 57 57 56 57 56 56 58 57 55 52 48 50 54 54 53 52 52 51 51 52 52 52 52 51 50 52 56 56 54 51 51
85 88 89 90 91 91 91 91 89 86 82 80 77 73 72 67 66 64 63 66 66 70 67 64 58 51 55 54 53 58 57 58 53 49 54 54 55 56 54 56 55 54 49 43 39 38 39 38 40 43 45 47 51 54 56 57 57 57 57 58 59 57 55 58 62 59 58 58 58 58 59 60 59 57 58 55 50 51 54 56 56 52 50 48 49 50 52 52 51 52 52 53 54 56 54 51 51
86 88 90 91 91 90 89 91 88 83 81 78 75 72 70 67 67 67 66 65 64 67 68 65 57 49 50 49 55 65 58 54 51 50 57 56 57 58 55 55 53 51 48 42 38 37 39 40 43 45 47 50 52 55 56 58 58 58 58 59 60 58 55 58 61 60 59 59 57 58 61 63 60 57 58 55 52 53 54 56 55 51 48 47 48 51 53 52 53 54 55 55 55 55 54 51 51
88 89 91 92 91 90 89 91 86 80 79 76 73 71 71 68 68 71 69 66 66 67 69 66 54 44 47 51 54 56 51 51 52 55 63 61 59 60 57 56 52 49 45 40 39 38 39 42 44 44 47 50 51 55 57 58 58 56 57 57 57 56 55 57 59 61 61 60 59 59 60 61 61 59 57 54 53 54 55 55 53 50 48 48 50 53 54 53 55 57 57 57 55 54 54 52 51
87 89 91 92 92 89 88 88 86 82 79 75 71 73 77 74 70 71 69 70 71 70 67 61 52 44 46 55 53 47 47 49 51 53 63 63 60 63 59 57 54 49 43 39 40 38 39 41 40 42 46 50 52 55 57 58 57 55 56 57 54 53 56 58 59 61 62 60 61 60 59 60 61 61 58 55 55 55 57 54 50 50 50 51 52 54 54 54 57 57 57 56 56 54 53 52 51
86 91 91 92 91 87 87 86 85 86 81 77 72 72 76 75 70 69 72 74 73 71 67 58 50 42 44 51 49 45 45 44 44 46 55 56 54 61 62 59 55 49 41 37 40 38 37 38 39 43 48 52 53 56 58 58 57 55 56 56 54 54 55 58 59 60 61 60 60 59 58 61 62 61 59 59 58 58 58 53 48 49 52 53 55 56 55 55 56 56 55 55 55 53 52 51 49
85 89 89 91 87 85 89 85 84 88 84 80 75 71 73 73 70 69 72 73 71 69 63 56 48 42 44 47 45 45 45 42 41 41 49 51 50 58 60 57 54 48 40 35 36 35 37 38 41 47 51 54 55 56 58 57 57 56 56 57 55 54 54 56 58 58 59 60 59 58 58 62 63 60 59 60 60 58 56 51 49 51 54 55 57 59 58 57 55 54 54 54 54 52 50 48 46
82 84 86 90 87 84 89 87 82 86 86 81 75 72 74 73 70 71 70 69 70 68 62 58 51 43 42 44 45 46 43 41 41 42 46 49 50 56 55 50 48 44 43 39 35 38 42 42 46 51 54 56 56 57 56 54 55 56 58 59 57 54 54 55 56 56 57 59 58 58 58 61 61 60 60 60 60 58 55 52 50 53 56 58 60 59 58 57 55 53 52 52 52 50 48 46 44
79 81 85 87 85 82 86 87 81 82 82 79 76 74 74 72 71 71 70 66 64 66 66 62 53 43 40 42 43 41 40 39 41 43 44 45 46 51 50 45 44 44 48 47 44 49 49 46 50 53 55 56 55 56 55 54 55 56 58 59 58 56 55 55 55 56 57 58 59 58 59 60 59 59 59 58 59 57 55 53 52 55 58 60 61 58 55 54 53 52 51 49 48 47 45 44 43
76 81 86 83 82 82 83 83 79 79 77 76 77 73 72 71 69 68 67 66 63 66 67 62 57 47 41 41 39 35 37 38 40 43 42 42 43 48 50 47 47 49 54 55 53 55 52 50 54 55 55 53 53 54 55 55 55 57 59 59 59 57 56 56 56 56 57 58 60 59 58 59 59 58 57 58 60 56 54 54 54 57 59 60 60 57 53 52 51 50 49 47 46 44 42 41 41
74 78 85 83 82 83 83 82 79 79 75 71 72 70 73 71 66 64 64 69 67 67 64 58 56 51 44 40 36 33 34 37 39 40 40 40 42 49 51 50 51 52 56 60 56 54 52 52 54 55 56 53 52 54 54 56 56 58 61 62 59 57 58 58 58 58 56 57 59 59 58 58 59 59 56 58 60 56 53 54 55 56 58 59 57 55 54 52 50 49 48 46 44 42 40 40 41
74 77 83 84 83 81 82 82 77 78 74 71 71 69 72 68 63 62 62 67 67 65 62 55 55 56 47 38 35 33 31 34 37 37 39 40 41 47 49 50 52 52 54 58 58 55 53 52 52 54 56 56 57 55 55 55 56 58 61 61 58 58 60 60 61 61 57 57 61 61 59 59 59 59 55 55 57 54 53 55 57 57 56 56 54 54 54 53 52 50 48 45 43 42 41 43 45
76 77 81 83 83 80 79 77 74 75 73 71 73 71 71 68 63 63 62 63 63 63 60 57 59 57 43 34 34 32 30 33 35 37 39 39 40 44 48 50 51 51 51 54 56 53 51 52 52 54 54 57 59 57 56 57 57 58 58 59 59 61 62 62 64 65 61 60 61 60 59 60 60 58 55 55 55 53 53 54 56 56 54 54 53 53 53 52 52 50 48 46 46 45 46 48 48
73 75 79 79 77 77 76 73 73 74 71 70 72 71 72 70 65 64 62 61 62 62 61 59 57 50 37 32 34 31 31 32 34 37 37 37 39 41 46 48 48 48 48 51 54 51 50 51 53 55 55 56 57 56 59 61 60 58 57 60 61 61 60 60 65 66 63 61 60 58 58 60 61 59 56 54 52 52 53 52 52 53 53 53 52 52 53 54 52 51 50 51 51 51 50 49 49
66 70 74 73 70 71 71 70 70 70 70 70 71 71 72 70 66 63 61 64 68 64 62 57 47 41 34 31 33 31 31 32 32 34 35 36 37 38 43 46 45 45 45 48 54 53 51 50 52 55 54 56 56 57 61 62 61 60 59 60 60 59 58 57 62 65 63 60 58 58 59 59 60 59 56 53 50 50 49 48 49 50 51 53 54 55 56 57 56 53 54 55 56 57 54 51 51
63 65 68 69 68 66 65 66 69 70 71 70 70 73 72 69 68 65 63 67 71 66 61 52 40 36 32 30 32 31 31 31 31 32 35 35 35 36 39 43 42 43 43 45 52 54 51 48 50 53 54 56 55 56 62 62 61 60 59 61 61 59 58 58 62 64 64 60 56 58 60 58 59 58 56 54 51 50 49 49 50 50 51 54 55 58 59 59 57 56 56 56 58 58 55 52 51
62 64 64 67 68 65 62 62 68 70 70 69 71 74 71 69 71 68 66 69 70 67 60 50 43 38 31 30 32 31 31 30 29 31 34 34 34 33 34 38 39 41 42 45 51 54 51 47 48 53 54 56 55 56 61 61 60 59 58 62 64 61 57 58 63 66 65 62 57 57 59 57 57 57 56 55 54 54 54 51 52 52 53 55 56 57 58 58 57 57 57 55 54 53 52 51 50
59 62 63 64 65 65 62 59 63 68 68 69 72 76 74 73 73 69 69 71 69 67 59 50 46 39 31 29 31 31 29 29 29 30 32 34 36 36 33 34 36 38 40 46 51 53 51 46 47 51 53 56 56 57 61 62 60 59 60 64 66 62 57 57 62 65 66 64 61 58 56 55 56 56 56 58 58 60 57 54 53 53 55 56 56 56 56 57 57 55 52 52 51 50 50 51 49
56 60 61 62 62 62 60 57 60 65 69 71 74 76 76 76 73 70 69 69 68 66 59 49 43 38 31 28 28 26 26 31 35 35 36 38 40 38 34 32 33 35 40 46 51 52 51 47 46 48 51 56 57 59 62 63 62 58 59 65 65 62 61 60 59 62 64 63 61 59 56 54 55 57 60 61 61 62 59 56 55 56 59 59 56 54 53 55 55 53 52 53 53 53 52 53 52
56 58 58 60 61 60 57 56 59 64 72 76 75 74 74 76 74 72 70 67 65 62 56 47 43 40 33 30 28 22 25 33 38 39 39 39 41 37 33 33 31 34 40 46 48 49 50 50 49 49 53 59 61 64 64 64 62 56 57 64 64 62 65 62 56 56 61 63 62 60 57 56 56 57 60 60 59 61 60 57 55 58 61 58 54 51 50 51 51 53 54 54 58 59 55 56 56
56 58 57 58 59 57 53 55 59 62 73 79 76 77 77 77 75 73 71 66 61 57 53 47 45 43 38 34 28 23 29 35 38 39 36 38 41 36 32 33 30 34 40 45 48 48 48 49 50 52 58 62 63 65 65 63 61 59 59 61 62 62 62 61 56 52 54 59 62 60 59 60 61 59 60 60 60 61 60 56 55 59 59 56 54 48 46 48 48 51 54 55 57 58 56 57 58
53 54 55 57 57 55 50 54 59 60 71 80 79 80 80 77 75 74 71 66 61 57 53 47 46 45 43 38 28 29 36 37 39 38 34 37 40 35 31 30 30 35 41 44 48 47 47 46 45 51 59 62 64 64 63 62 59 59 61 62 66 68 65 61 55 50 50 52 56 57 58 61 62 61 62 62 62 63 64 59 54 57 59 58 56 48 44 44 45 48 53 56 54 53 57 60 59
48 48 50 54 53 53 49 50 55 60 71 78 78 80 81 78 76 74 71 68 63 59 53 48 48 47 47 43 32 35 38 36 38 36 35 35 33 33 30 28 30 36 41 44 46 45 45 45 42 47 54 58 61 62 62 61 59 59 63 66 71 76 74 64 52 48 48 47 50 51 53 56 56 56 58 60 59 61 65 63 58 57 55 53 48 45 45 44 45 46 49 57 54 50 56 59 57
43 42 45 52 52 52 49 48 52 58 68 71 72 80 84 78 76 75 71 71 66 59 54 50 49 47 48 45 37 40 38 33 36 35 35 31 27 32 31 28 30 34 40 44 45 43 42 42 41 43 49 55 58 59 60 60 60 60 61 64 67 70 70 63 53 48 46 45 48 49 49 51 51 51 53 55 56 59 60 61 63 57 49 46 44 45 48 48 51 49 50 60 59 55 57 57 55
40 40 42 48 53 53 48 48 51 55 64 65 66 78 83 74 72 74 72 72 68 62 58 52 50 49 49 45 41 45 37 28 34 37 33 25 26 32 31 30 30 32 39 41 43 43 40 39 38 40 45 53 54 55 58 59 61 60 59 62 64 64 62 59 55 49 44 44 47 47 48 49 48 49 51 52 54 56 56 57 58 52 45 47 48 50 51 51 52 50 51 56 58 57 55 54 52
39 39 41 43 51 56 51 48 50 53 60 63 63 73 79 72 69 72 73 73 70 65 63 58 53 51 50 45 44 48 39 29 35 38 30 23 28 31 31 34 29 28 35 38 41 41 40 37 36 38 42 50 51 53 56 57 60 59 59 63 64 64 63 60 58 53 47 44 44 44 45 46 46 47 49 50 52 52 53 53 49 45 46 47 48 51 52 51 52 50 50 52 55 56 53 52 52
39 37 40 42 49 57 56 52 52 52 56 61 63 68 72 71 70 73 73 73 72 67 66 66 59 55 52 45 46 49 41 35 37 38 31 25 31 31 30 33 27 26 30 36 41 40 37 36 36 37 40 47 50 51 54 56 57 57 59 63 64 63 61 57 58 59 55 47 42 41 41 43 44 45 45 47 49 49 49 48 42 41 43 44 46 50 49 50 51 48 47 49 52 52 51 51 53
41 38 38 42 47 53 56 56 54 53 55 58 61 64 67 68 69 73 75 74 74 71 70 72 65 60 56 47 46 47 40 38 39 38 33 27 29 29 27 29 26 25 28 32 38 38 35 35 35 35 39 44 46 47 51 54 54 56 59 62 64 64 58 56 55 55 56 49 40 39 39 41 43 44 43 44 46 47 48 45 40 40 41 43 48 49 48 48 47 45 46 49 50 50 51 51 51
42 40 37 41 46 50 55 57 53 51 55 58 59 63 66 67 68 71 74 73 74 76 76 78 73 66 60 50 46 45 39 39 41 36 32 29 27 26 25 25 25 26 28 30 35 37 34 33 34 32 37 42 40 42 47 51 52 56 59 57 61 63 57 58 58 54 54 48 39 38 38 39 41 42 42 43 44 45 46 44 40 40 40 42 47 50 50 47 41 41 45 48 49 49 51 50 51
41 42 40 41 45 49 53 55 55 53 54 57 58 63 65 66 70 71 72 72 72 76 76 77 77 71 63 55 49 47 41 42 43 36 32 32 27 25 24 21 23 25 27 29 33 38 34 32 34 31 34 38 34 39 45 46 51 57 57 55 59 61 57 57 58 58 57 49 39 38 38 37 39 42 41 42 43 42 42 40 38 39 39 40 44 48 49 46 42 40 41 44 46 47 50 48 48
38 42 42 41 43 47 48 48 53 55 54 55 56 62 63 63 67 70 73 73 71 74 75 76 78 75 68 60 55 52 46 44 46 39 35 33 28 26 21 18 22 23 26 30 32 37 35 33 34 30 34 36 31 36 41 43 51 55 54 55 59 58 56 57 56 56 56 49 41 40 40 37 37 40 40 40 41 40 39 38 38 38 37 38 43 46 45 43 42 41 42 43 43 45 49 48 45
35 40 43 43 41 43 46 47 49 51 52 54 53 57 62 62 64 67 71 75 74 73 73 73 77 80 74 64 60 58 51 47 47 43 38 33 30 26 19 16 20 21 26 30 30 34 33 32 33 31 33 34 29 32 38 43 50 54 53 57 59 55 55 58 56 54 53 47 42 42 42 37 35 37 37 38 38 38 38 37 36 36 35 36 42 43 40 39 40 40 44 47 46 45 45 45 45
36 40 44 44 41 40 45 46 45 45 45 48 50 52 57 60 63 66 68 74 76 73 70 72 76 79 74 68 67 64 55 49 48 45 40 36 31 25 19 17 18 20 25 29 30 32 32 33 33 30 32 33 29 29 35 42 47 52 55 58 59 55 56 58 56 55 53 47 44 45 42 36 35 36 35 36 35 36 36 35 35 34 33 34 37 38 36 37 39 40 44 48 49 47 44 44 47
40 43 43 43 43 41 42 44 42 42 42 44 48 51 54 57 63 65 66 70 73 73 75 77 76 75 74 70 70 68 58 51 50 47 41 39 34 24 19 18 17 19 23 27 31 32 34 34 31 29 30 32 29 27 34 42 44 50 53 57 61 58 59 60 58 59 54 46 46 45 40 35 34 34 33 34 34 34 34 33 33 33 33 33 33 34 33 35 39 44 47 47 47 45 44 45 47
42 46 43 42 44 41 40 42 43 42 42 43 47 52 54 55 61 63 61 66 68 68 74 79 76 74 75 72 72 70 62 56 54 51 44 40 36 26 20 19 18 19 21 25 30 32 34 34 31 29 29 31 29 25 33 41 42 48 50 55 60 57 59 59 57 59 54 48 47 42 38 37 35 33 33 33 33 32 31 31 31 31 33 34 34 33 32 34 37 43 47 47 46 43 43 44 43
41 44 41 40 41 41 41 43 44 42 40 42 45 53 55 52 58 62 59 64 68 66 69 74 76 77 76 73 73 71 66 61 57 55 51 47 40 29 22 21 20 20 20 23 27 31 34 33 31 30 28 29 28 24 30 36 39 46 48 51 57 53 53 54 52 55 53 50 50 44 38 37 36 34 33 34 33 31 31 30 29 29 31 34 34 33 32 34 37 41 44 47 48 44 41 41 41
39 39 38 38 37 39 42 42 44 41 39 40 39 45 55 54 57 62 62 65 72 74 72 70 71 75 76 74 73 70 66 63 60 58 57 55 49 36 26 24 22 21 21 21 24 28 33 32 29 30 28 28 28 23 26 30 33 41 45 49 52 50 49 50 53 55 52 52 54 48 40 36 37 36 34 35 33 31 32 31 30 29 30 33 34 33 33 34 37 41 42 45 48 44 40 39 38
32 30 31 32 30 34 40 41 42 41 38 40 36 38 53 61 60 61 63 65 72 79 79 74 70 70 72 73 73 70 65 63 61 59 59 59 57 47 34 27 24 23 23 22 22 24 30 31 28 27 27 27 27 23 22 26 28 33 40 46 49 48 48 49 54 55 52 55 55 49 43 37 38 38 35 36 34 32 32 31 31 31 29 31 33 34 35 36 38 40 40 42 43 40 38 39 36
25 27 29 27 25 29 38 41 42 41 38 39 38 35 47 62 63 61 64 64 66 72 75 76 72 67 68 71 71 70 67 64 62 60 60 60 61 55 43 34 29 26 25 24 24 23 26 29 28 27 26 27 27 23 21 23 26 28 33 42 46 47 49 50 52 52 51 56 53 47 45 40 39 40 36 36 34 32 31 30 32 34 33 32 33 33 36 38 38 37 36 36 37 36 37 38 37
21 27 32 31 28 28 33 39 41 42 41 40 39 33 38 58 63 60 64 64 62 66 69 74 73 69 70 70 70 71 69 66 64 62 63 64 62 58 51 42 34 31 29 26 26 26 28 28 25 25 26 28 28 24 22 22 24 26 28 37 44 45 48 49 50 50 49 52 50 47 46 41 40 42 38 37 36 32 31 30 31 34 37 37 33 33 37 38 36 33 31 31 32 33 34 36 38
21 27 31 33 35 32 32 37 42 47 45 40 39 32 34 54 63 59 62 63 61 63 66 71 71 68 69 69 69 71 71 67 64 64 64 64 62 59 57 51 42 40 36 30 28 28 30 30 24 22 24 27 28 26 24 22 22 25 25 31 40 42 45 48 49 49 46 45 45 45 44 40 39 41 40 39 38 35 33 32 31 33 38 38 33 35 39 36 34 32 29 28 29 31 33 35 38
24 28 30 31 35 35 36 37 40 47 45 38 38 33 33 52 60 57 60 62 62 64 66 68 68 65 66 68 66 68 72 69 66 66 63 61 60 58 59 56 50 48 45 37 32 30 32 33 26 22 21 23 27 27 26 26 23 24 25 27 35 40 42 45 47 47 44 39 39 41 42 41 40 41 41 39 38 39 35 33 34 35 37 37 34 37 38 35 35 34 30 28 28 28 31 34 36
27 32 33 32 37 38 38 35 35 41 41 36 36 32 40 58 61 56 60 62 63 66 66 67 67 65 65 66 62 62 66 69 70 69 64 61 61 58 59 61 58 54 50 45 40 35 35 37 30 23 20 18 21 23 24 27 26 25 25 25 31 38 41 45 45 46 45 38 35 38 39 40 41 42 42 39 40 41 38 36 37 37 37 36 35 37 36 36 38 38 33 29 27 27 28 31 33
27 34 35 34 38 40 36 31 29 30 29 28 29 33 49 63 60 60 62 60 61 66 65 64 66 63 61 62 61 58 58 64 72 72 66 65 64 62 62 65 64 59 56 53 48 40 38 41 35 24 20 17 17 17 18 22 24 25 26 25 28 32 37 43 45 44 44 38 34 37 38 36 38 39 41 42 41 41 40 38 37 39 37 34 36 37 35 35 39 39 35 29 28 28 27 28 29
24 30 36 34 33 36 33 29 25 22 21 21 23 33 51 59 59 62 63 59 59 63 63 62 63 60 59 61 62 59 57 61 70 72 68 66 66 67 67 67 65 62 61 61 56 46 40 42 40 29 22 21 19 17 15 16 18 20 23 24 25 27 32 39 42 41 41 37 34 36 38 38 36 36 39 44 45 42 40 37 37 40 38 33 36 38 36 36 36 38 36 30 28 29 26 27 27
30 29 36 37 32 31 32 29 24 20 21 23 26 39 53 57 59 60 60 60 59 57 60 63 63 58 58 61 62 62 61 61 65 72 74 72 69 71 69 65 64 63 63 65 63 54 44 42 42 34 26 24 23 20 16 15 15 16 18 21 23 24 27 32 37 37 38 37 34 33 36 39 39 38 38 41 43 43 40 36 35 38 37 34 35 35 35 35 34 35 37 32 29 31 28 26 27
34 32 35 38 34 31 31 30 25 21 24 29 35 46 52 55 60 61 58 60 60 57 57 60 62 60 60 62 62 64 66 63 62 66 72 73 73 72 67 62 62 64 64 65 65 62 52 44 43 39 32 27 24 21 18 16 16 15 16 18 20 21 23 27 31 34 36 37 34 33 33 35 38 38 36 36 38 40 41 38 34 33 35 38 36 31 30 34 34 33 35 32 30 35 34 27 26
32 33 33 32 30 31 31 31 29 24 23 32 39 42 46 50 57 61 59 58 60 58 56 57 61 63 63 63 63 65 69 67 63 63 65 68 72 72 70 65 63 64 63 63 67 67 59 48 42 42 40 34 27 22 20 19 19 19 18 17 18 19 19 22 28 31 34 36 35 34 33 33 34 35 36 35 34 34 37 37 35 34 35 36 36 33 31 33 35 33 34 34 31 35 38 31 27
27 30 30 25 27 32 31 30 35 28 23 39 50 44 46 51 52 56 56 57 61 59 57 59 60 62 64 63 62 64 69 70 68 65 65 67 70 72 74 73 69 67 63 62 65 64 58 53 47 45 45 43 37 29 23 20 21 21 21 20 18 19 18 19 26 31 32 34 35 35 34 34 34 34 36 37 34 31 30 31 33 35 36 34 34 37 36 34 34 32 32 34 32 33 35 32 29
21 24 24 22 26 30 28 28 35 32 26 41 56 54 54 56 53 55 56 58 62 59 57 59 59 60 62 62 62 62 64 70 71 69 67 67 67 68 71 74 74 71 66 63 63 61 58 57 53 48 47 48 48 43 32 25 23 22 24 24 20 19 19 18 22 29 31 32 33 34 34 34 34 34 35 36 35 32 29 26 27 29 33 34 31 34 37 35 33 32 30 33 36 36 33 32 31
16 19 21 23 26 28 28 27 31 33 31 38 53 62 62 58 57 59 59 61 62 56 54 58 58 60 62 61 63 63 62 65 67 66 66 69 71 71 70 73 75 73 68 65 64 62 59 57 55 52 50 51 54 51 42 33 27 25 25 26 23 20 20 19 20 26 29 30 31 32 33 33 33 34 34 35 35 33 30 27 25 25 29 32 30 28 31 33 34 34 32 31 38 40 35 31 32
16 19 21 23 26 30 31 30 28 30 34 40 54 68 68 60 60 61 60 62 60 52 52 55 56 59 62 61 61 64 65 65 65 64 64 66 70 72 70 72 75 73 70 70 67 63 60 56 56 56 54 53 53 53 52 44 35 30 27 27 27 23 21 20 21 24 27 28 29 29 30 31 32 32 32 34 34 33 31 28 27 28 29 31 32 28 28 30 30 32 32 30 34 39 37 32 31